Barcelona, Spain

12:36 AM CET en Enero 24, 2018 (GMT +0100)
El Prat

Tiempo Historia de LEBL - Enero, 2018

Change the Weather History Date:

Sábado, Enero 13, 2018

  Actual Average Record
Temperature  
Temperatura media 47 ° F -  
Temperatura máxima 57 ° F 54 ° F 62 ° F (1998)
Temperatura mínima 37 ° F 40 ° F 30 ° F (2003)
Degree Days  
Grados día de calefacción 18    
Moisture  
Punto de rocío 38 ° F    
Average Humidity 70    
Maximum Humidity 94    
Minimum Humidity 43    
Precipitación  
Precipitación 0.39 pul 0.05 pul - ()
Presión al nivel del mar  
Presión al nivel del mar 30.11 pul    
Viento  
Velocidad del viento 11 mph ()    
Velocidad máxima del viento 17 mph    
Max Gust Speed 29 mph    
Visibilidad 9.1 Millas    
Eventos Lluvia    
Averages and records for this station are not official NWS values.
T = Trace of Precipitation, MM = Missing Value Source: Averaged Metar Reports

Daily Weather History Graph

Daily Weather History Graph

Search for Another Location

Airport or City:

Trip Planner

Search our weather history database for the weather conditions in past years. The results will help you decide how hot, cold, wet, or windy it might be!

Date:

Astronomía

Jan. 13, 2018 Salida Puesta
Hora real 8:16 AM CET 5:45 PM CET
Crepúsculo civil 7:45 AM CET 6:15 PM CET
Crepúsculo náutico 7:11 AM CET 6:49 PM CET
Crepúsculo astronómico 6:38 AM CET 7:22 PM CET
Luna 5:03 AM CET (1/13) 3:11 PM CET (1/13)
Horas de luz 10h 30m
Horas de luz
9h 28m
Creciente menguante, 11% of the Moon is Illuminated
Ene 13
Creciente menguante
Ene 17
Nueva
Ene 24
Cuarto creciente
Ene 31
Luna llena
Feb 7
Cuarto menguante

Hourly Weather History & Observations

Hora (CET) Temp. Vientos helados Punto de rocío Humedad Presión Visibilidad Wind Dir Velocidad del viento Velocidad de ráfagas Precip Eventos Condiciones
12:00 AM 44 ° F - 35 ° F 62% 30.24 pul 14 mi Norte 10.4 mph - -  
12:00 AM 42.8 ° F 36.6 ° F 35.6 ° F 76% 30.21 pul - NO 11.5 mph - N/A   Despejado
12:30 AM 42.8 ° F 36.2 ° F 33.8 ° F 70% 30.21 pul 6.2 mi NO 12.7 mph - N/A   Parcialmente nublado
1:00 AM 42 ° F - 35 ° F 67% 30.23 pul 12 mi Norte 13.8 mph - -   Nubes dispersas
1:00 AM 41.0 ° F 33.9 ° F 33.8 ° F 76% 30.21 pul 6.2 mi NNO 12.7 mph - N/A   Parcialmente nublado
1:30 AM 41.0 ° F 33.5 ° F 33.8 ° F 76% 30.21 pul 6.2 mi NNO 13.8 mph - N/A   Parcialmente nublado
2:00 AM 41.0 ° F 33.5 ° F 33.8 ° F 76% 30.21 pul - NNO 13.8 mph - N/A   Despejado
2:30 AM 39.2 ° F 30.8 ° F 32.0 ° F 75% 30.18 pul - NNO 15.0 mph - N/A   Despejado
3:00 AM 39.2 ° F 30.5 ° F 32.0 ° F 75% 30.18 pul - NNO 16.1 mph - N/A   Despejado
3:30 AM 39.2 ° F 30.8 ° F 32.0 ° F 75% 30.18 pul - NNO 15.0 mph - N/A   Despejado
4:00 AM 40 ° F - 33 ° F 68% 30.19 pul 12 mi Norte 13.8 mph - -   Despejado
4:00 AM 39.2 ° F 31.2 ° F 32.0 ° F 75% 30.18 pul - NNO 13.8 mph - N/A   Despejado
4:30 AM 39.2 ° F 30.8 ° F 32.0 ° F 75% 30.18 pul - NNO 15.0 mph - N/A   Despejado
5:00 AM 39 ° F - 33 ° F 70% 30.18 pul 13 mi Norte 13.8 mph - -  
5:00 AM 39.2 ° F 30.8 ° F 32.0 ° F 75% 30.15 pul - NNO 15.0 mph - N/A   Despejado
5:30 AM 37.4 ° F 28.5 ° F 32.0 ° F 81% 30.15 pul - NO 15.0 mph - N/A   Despejado
6:00 AM 38 ° F - 32 ° F 71% 30.17 pul 12 mi Norte 13.8 mph - -  
6:00 AM 37.4 ° F 28.5 ° F 32.0 ° F 81% 30.15 pul - NNO 15.0 mph - N/A   Despejado
6:30 AM 37.4 ° F 28.5 ° F 32.0 ° F 81% 30.15 pul - NNO 15.0 mph - N/A   Despejado
7:00 AM 38 ° F - 31 ° F 69% 30.17 pul 14 mi Norte 15.0 mph - -   Despejado
7:00 AM 37.4 ° F 28.2 ° F 32.0 ° F 81% 30.15 pul - NNO 16.1 mph - N/A   Despejado
7:30 AM 37.4 ° F 28.5 ° F 32.0 ° F 81% 30.15 pul - NO 15.0 mph - N/A   Despejado
8:00 AM 37 ° F - 31 ° F 72% 30.17 pul 15 mi Norte 13.8 mph - -  
8:00 AM 37.4 ° F 28.5 ° F 32.0 ° F 81% 30.15 pul 6.2 mi NO 15.0 mph - N/A   Parcialmente nublado
8:30 AM 37.4 ° F 28.5 ° F 30.2 ° F 75% 30.15 pul 6.2 mi NNO 15.0 mph - N/A   Parcialmente nublado
9:00 AM 39 ° F - 32 ° F 66% 30.17 pul 12 mi Norte 12.7 mph - -  
9:00 AM 37.4 ° F 28.2 ° F 32.0 ° F 81% 30.15 pul 6.2 mi NNO 16.1 mph - N/A   Parcialmente nublado
9:30 AM 39.2 ° F 31.2 ° F 30.2 ° F 70% 30.15 pul 6.2 mi NO 13.8 mph 28.8 mph N/A   Parcialmente nublado
10:00 AM 41 ° F - 32 ° F 60% 30.17 pul 16 mi Norte 13.8 mph - -   Nubes dispersas
10:00 AM 39.2 ° F 30.8 ° F 32.0 ° F 75% 30.15 pul 6.2 mi NNO 15.0 mph - N/A   Parcialmente nublado
10:30 AM 41.0 ° F 33.9 ° F 32.0 ° F 70% 30.15 pul 6.2 mi NO 12.7 mph 26.5 mph N/A   Parcialmente nublado
11:00 AM 46 ° F - 34 ° F 52% 30.18 pul 16 mi Norte 10.4 mph - -  
11:00 AM 44.6 ° F 39.2 ° F 33.8 ° F 66% 30.15 pul 6.2 mi NNO 10.4 mph - N/A   Nubes dispersas
11:30 AM 46.4 ° F 41.9 ° F 33.8 ° F 62% 30.15 pul 6.2 mi NNO 9.2 mph 20.7 mph N/A   Nubes dispersas
12:00 PM 49 ° F - 35 ° F 47% 30.17 pul 16 mi Norte 9.2 mph - -  
12:00 PM 48.2 ° F - 35.6 ° F 62% 30.15 pul 6.2 mi NNO 10.4 mph - N/A   Parcialmente nublado
12:30 PM 48.2 ° F - 33.8 ° F 58% 30.15 pul 6.2 mi NO 9.2 mph - N/A   Parcialmente nublado
1:00 PM 51 ° F - 35 ° F 43% 30.14 pul 16 mi Norte 9.2 mph - -   Nubes dispersas
1:00 PM 50.0 ° F - 35.6 ° F 58% 30.12 pul 6.2 mi NNO 10.4 mph - N/A   Parcialmente nublado
1:30 PM 51.8 ° F - 37.4 ° F 58% 30.12 pul 6.2 mi NO 5.8 mph - N/A   Nubes dispersas
2:00 PM 54 ° F - 39 ° F 45% 30.11 pul 15 mi NNE 4.6 mph - -  
2:00 PM 53.6 ° F - 37.4 ° F 54% 30.09 pul 6.2 mi NO 4.6 mph - N/A   Nubes dispersas
2:30 PM 53.6 ° F - 39.2 ° F 58% 30.09 pul 6.2 mi Variable 2.3 mph - N/A   Parcialmente nublado
3:00 PM 54 ° F - 40 ° F 47% 30.09 pul 19 mi NNE 2.3 mph - -  
3:00 PM 53.6 ° F - 39.2 ° F 58% 30.06 pul 6.2 mi Variable 1.2 mph - N/A   Nubes dispersas
3:30 PM 53.6 ° F - 39.2 ° F 58% 30.06 pul 6.2 mi Sin viento Sin viento - N/A   Muy nublado
4:00 PM 54 ° F - 41 ° F 50% 30.07 pul 16 mi Este 4.6 mph - -   Nublado
4:00 PM 53.6 ° F - 39.2 ° F 58% 30.06 pul 6.2 mi Norte 1.2 mph - N/A   Muy nublado
4:30 PM 55.4 ° F - 44.6 ° F 67% 30.04 pul 6.2 mi SO 8.1 mph - N/A   Muy nublado
5:00 PM 56 ° F - 46 ° F 59% 30.06 pul 19 mi SO 12.7 mph - -  
5:00 PM 55.4 ° F - 44.6 ° F 67% 30.04 pul 6.2 mi SSO 11.5 mph - N/A   Nubes dispersas
5:30 PM 55.4 ° F - 46.4 ° F 72% 30.04 pul 6.2 mi SSO 9.2 mph - N/A   Nubes dispersas
6:00 PM 56 ° F - 47 ° F 63% 30.05 pul 19 mi SSO 9.2 mph - -  
6:00 PM 55.4 ° F - 46.4 ° F 72% 30.04 pul 6.2 mi Sur 9.2 mph - N/A   Nubes dispersas
6:30 PM 55.4 ° F - 46.4 ° F 72% 30.04 pul 6.2 mi Sur 11.5 mph - N/A   Muy nublado
7:00 PM 57 ° F - 48 ° F 63% 30.04 pul 16 mi Sur 9.2 mph - -   Nublado
7:00 PM 55.4 ° F - 48.2 ° F 77% 30.04 pul 6.2 mi Sur 12.7 mph - N/A   Muy nublado
7:30 PM 53.6 ° F - 50.0 ° F 88% 30.04 pul 6.2 mi Sur 15.0 mph - N/A Lluvia Lluvia débil
8:00 PM 55.4 ° F - 48.2 ° F 77% 30.04 pul 6.2 mi SO 11.5 mph - N/A   Muy nublado
8:30 PM 55.4 ° F - 48.2 ° F 77% 30.04 pul 6.2 mi SO 11.5 mph - N/A   Muy nublado
9:00 PM 55 ° F - 48 ° F 71% 30.03 pul 16 mi OSO 9.2 mph - -  
9:00 PM 53.6 ° F - 48.2 ° F 82% 30.01 pul 6.2 mi OSO 11.5 mph - N/A   Nubes dispersas
9:30 PM 53.6 ° F - 48.2 ° F 82% 30.01 pul 5.6 mi NO 4.6 mph - N/A Lluvia Lluvia
9:46 PM 50.0 ° F - 46.4 ° F 87% 30.01 pul 1.7 mi Oeste 3.5 mph - N/A Lluvia Lluvias fuertes
10:00 PM 51 ° F - 46 ° F 78% 30.03 pul 4 mi NNO 4.6 mph - - Lluvia Llovizna
10:00 PM 50.0 ° F - 46.4 ° F 87% 30.01 pul 4.3 mi Variable 3.5 mph - N/A Lluvia Lluvia
10:12 PM 50.0 ° F - 46.4 ° F 87% 30.01 pul 5.6 mi NO 4.6 mph - N/A Lluvia Lluvia débil
10:30 PM 50.0 ° F - 46.4 ° F 87% 30.01 pul 5.6 mi NO 4.6 mph - N/A Lluvia Lluvia débil
11:00 PM 51 ° F - 49 ° F 88% 30.01 pul 13 mi SSO 4.6 mph - -   Despejado
11:00 PM 50.0 ° F - 48.2 ° F 94% 30.01 pul 6.2 mi NNO 6.9 mph - N/A   Nubes dispersas
11:30 PM 55.4 ° F - 48.2 ° F 77% 29.98 pul 6.2 mi SSO 17.3 mph - N/A   Nubes dispersas